Location: Newark
(27.9675°N, 86.8869°E)
Time: 04:35:59
(UTC+00:00)

Vanguard 1 - Visible Passes

Search period start: 21 October 2019 00:00
Search period end: 31 October 2019 00:00
Orbit: 653 x 3830 km, 34.2° (Epoch: 20 October)

Date Brightness Start Highest point End Pass type
(mag) Time Alt. Az. Time Alt. Az. Time Alt. Az.
21 Oct 10.7 11:57:59 10° WSW 12:04:12 89° SSE 12:15:49 10° ENE visible
21 Oct 11.6 14:18:01 10° W 14:27:07 65° N 14:28:59 60° NE visible
21 Oct 13.1 16:38:52 10° WNW 16:41:41 22° WNW 16:41:41 22° WNW visible
21 Oct 13.7 19:33:38 27° SSE 19:33:38 27° SSE 19:41:20 10° SE visible
21 Oct 13.6 21:46:22 22° SW 21:46:22 22° SW 21:59:45 10° S visible
22 Oct 10.8 12:18:57 10° WSW 12:25:25 76° NNW 12:35:50 14° ENE visible
22 Oct 11.6 14:39:10 10° WNW 14:48:31 66° N 14:48:31 66° N visible
22 Oct 13.4 17:00:01 10° WNW 17:40:50 - ESE 17:01:12 15° WNW visible
22 Oct 13.7 19:53:33 27° SSE 19:53:33 27° SSE 20:01:47 10° SSE visible
22 Oct 13.8 22:06:16 15° SW 22:06:16 15° SW 22:16:50 10° SSW visible
23 Oct 11.0 12:40:01 10° W 12:46:46 67° N 12:55:21 21° ENE visible
23 Oct 11.8 15:00:18 10° WNW 15:08:03 61° NW 15:08:03 61° NW visible
23 Oct13.718:00:39SE18:00:39SE17:20:44WNWvisible
23 Oct 13.7 20:13:22 25° S 20:13:22 25° S 20:21:46 10° SSE visible
24 Oct 11.2 13:01:09 10° W 13:08:13 62° N 13:14:54 29° ENE visible
24 Oct 12.1 15:21:24 10° WNW 15:27:35 49° WNW 15:27:35 49° WNW visible
24 Oct13.918:20:24SE18:20:24SE17:40:17WNWvisible
24 Oct 13.7 20:33:06 22° S 20:33:06 22° S 20:41:10 10° S visible
25 Oct 11.2 13:22:16 10° WNW 13:29:41 61° N 13:34:27 39° ENE visible
25 Oct 12.4 15:42:27 10° WNW 15:47:09 37° WNW 15:47:09 37° WNW visible
25 Oct 14.2 18:40:03 11° SE 18:40:03 11° SE 18:40:40 10° SE visible
25 Oct 13.9 20:52:44 18° SSW 20:52:44 18° SSW 20:59:43 10° S visible
26 Oct 11.3 13:43:22 10° WNW 13:51:10 63° N 13:54:02 51° ENE visible
26 Oct 12.8 16:03:31 10° WNW 16:06:43 26° WNW 16:06:43 26° WNW visible
26 Oct 14.1 18:59:36 13° SSE 18:59:36 13° SSE 19:01:07 10° SSE visible
26 Oct 14.0 21:12:17 13° SSW 21:12:17 13° SSW 21:16:29 10° SSW visible
27 Oct 10.7 11:44:30 10° W 11:50:05 60° N 11:59:51 10° ENE visible
27 Oct 11.3 14:04:25 10° WNW 14:12:36 68° NNE 14:13:38 65° NE visible
27 Oct 13.1 16:24:37 10° WNW 16:26:19 18° WNW 16:26:19 18° WNW visible
27 Oct 14.1 19:19:05 13° SSE 19:19:05 13° SSE 19:21:03 10° SSE visible
28 Oct 10.8 12:05:37 10° W 12:11:25 56° N 12:20:33 13° ENE visible
28 Oct 11.3 14:25:26 10° WNW 14:33:16 73° NNW 14:33:16 73° NNW visible
28 Oct 13.4 16:45:49 10° WNW 16:45:57 11° WNW 16:45:57 11° WNW visible
28 Oct 14.1 19:38:29 13° S 19:38:29 13° S 19:40:22 10° S visible
29 Oct 10.9 12:26:42 10° WNW 12:32:46 55° N 12:40:13 20° ENE visible
29 Oct 11.5 14:46:25 10° WNW 14:52:55 62° WNW 14:52:55 62° WNW visible
29 Oct13.717:45:08SE17:45:08SE17:05:38WNWvisible
29 Oct 14.1 19:57:48 11° S 19:57:48 11° S 19:58:40 10° S visible
30 Oct 10.9 12:47:45 10° WNW 12:54:07 58° N 12:59:55 28° ENE visible
30 Oct 11.9 15:07:25 10° WNW 15:12:37 46° WNW 15:12:37 46° WNW visible
